Date,TemperatureHighF,TemperatureAvgF,TemperatureLowF,DewpointHighF,DewpointAvgF,DewpointLowF,HumidityHigh,HumidityAvg,HumidityLow,PressureMaxIn,PressureMinIn,WindSpeedMaxMPH,WindSpeedAvgMPH,GustSpeedMaxMPH,PrecipitationSumIn
2013-1-1,38.2,34.9,24.8,27.3,21.4,9.8,68,58,45,29.94,29.75,13,3,13,0.03
2013-1-2,31.8,26.2,20.8,14.9,11.3,8.2,63,53,42,30.09,29.92,12,2,12,0.03
2013-1-3,32.7,27.2,20.8,18.0,14.3,11.5,75,59,43,30.11,29.97,10,2,10,0.00
2013-1-4,37.9,33.6,30.0,22.3,19.5,17.1,64,56,46,29.99,29.86,18,5,18,0.00
2013-1-5,43.1,34.4,27.8,22.7,19.3,16.1,78,55,40,30.19,29.93,13,2,13,0.00
2013-1-6,46.5,37.2,28.7,29.4,25.3,22.0,84,63,43,30.14,29.88,12,2,12,0.00
2013-1-7,44.5,36.4,26.3,27.2,22.9,17.0,79,60,35,30.31,29.97,7,1,7,0.00
2013-1-8,48.0,34.2,22.4,29.2,24.7,18.4,87,70,46,30.34,30.25,9,1,9,0.00
2013-1-9,45.8,35.3,24.5,34.8,28.5,21.7,90,77,57,30.31,30.05,16,2,16,0.00
2013-1-10,47.9,41.3,33.1,29.9,23.5,21.0,70,50,35,30.46,30.14,12,2,12,0.00
2013-1-11,40.9,35.9,30.1,37.6,30.0,24.3,95,79,62,30.46,30.03,4,0,4,0.46
2013-1-12,45.7,42.9,38.9,44.4,41.7,37.6,97,95,93,30.10,30.00,4,0,4,0.01
2013-1-13,46.2,44.8,43.6,45.7,44.0,42.7,98,97,96,30.08,29.93,4,0,4,0.02
2013-1-14,55.1,47.6,38.6,51.5,40.4,26.6,98,79,48,30.23,29.83,12,1,12,0.05
2013-1-15,38.5,35.9,34.0,34.7,27.5,23.5,91,72,59,30.28,30.14,5,1,5,0.10
2013-1-16,34.0,32.2,30.7,32.5,30.2,26.5,95,93,74,30.16,29.74,5,0,5,0.05
2013-1-17,42.2,37.1,33.7,33.3,26.6,20.9,95,66,52,30.02,29.82,9,1,9,0.32
2013-1-18,34.0,27.2,24.4,21.8,9.2,0.5,65,47,29,30.39,29.93,10,2,10,0.01
2013-1-19,48.5,37.6,23.9,27.5,21.2,9.8,66,52,38,30.31,29.83,14,4,14,0.09
2013-1-20,51.6,40.4,28.2,28.0,20.7,7.1,74,48,21,29.96,29.61,23,5,23,0.00
2013-1-21,29.4,26.7,22.5,16.7,11.0,4.6,68,52,38,30.00,29.75,7,1,7,0.00
2013-1-22,24.7,18.5,11.9,13.1,-0.7,-10.6,69,43,25,30.12,29.75,20,4,20,0.00
2013-1-23,18.4,12.9,9.0,1.4,-5.1,-9.4,67,45,29,30.17,30.08,13,3,13,0.00
2013-1-24,23.2,15.0,8.3,3.3,-1.6,-7.1,76,50,27,30.33,30.05,18,3,18,0.00
2013-1-25,23.3,16.4,11.2,13.7,3.4,-4.3,83,58,37,30.33,29.99,9,1,9,0.00
2013-1-26,27.5,18.1,8.4,8.8,5.7,2.5,83,61,35,30.30,29.98,10,2,10,0.01
2013-1-27,34.9,24.2,13.5,11.5,7.8,3.3,73,51,27,30.44,30.29,10,1,10,0.00
2013-1-28,32.8,28.1,21.3,31.5,23.1,10.8,95,82,62,30.41,29.92,6,1,6,0.18
2013-1-29,53.1,39.9,32.8,44.4,36.5,31.5,97,88,60,30.09,29.92,5,0,5,0.15
2013-1-30,58.1,44.3,37.0,57.5,43.6,35.9,98,97,95,30.00,29.26,7,0,7,0.19
2013-1-31,60.7,43.7,28.4,59.3,28.4,6.3,98,58,31,29.70,28.97,28,10,28,0.85
2013-2-1,30.4,26.3,22.4,15.9,10.1,2.1,69,51,31,30.15,29.70,20,4,20,0.00
2013-2-2,28.4,22.5,17.0,18.6,8.4,1.9,85,56,33,30.22,29.97,16,3,16,0.00
2013-2-3,31.8,24.2,20.2,18.9,16.8,13.5,88,74,53,29.97,29.72,6,0,6,0.05
2013-2-4,30.0,25.5,21.0,18.9,8.8,4.4,80,50,34,29.89,29.73,20,3,20,0.00
2013-2-5,29.3,27.3,24.4,25.0,20.3,10.8,87,75,53,29.90,29.82,4,0,4,0.00
2013-2-6,37.9,31.1,23.9,26.1,18.2,1.8,93,63,32,30.28,29.84,13,2,13,0.03
2013-2-7,30.7,26.5,21.3,19.0,8.3,3.2,65,46,37,30.43,30.25,4,1,4,0.00
2013-2-8,32.8,30.8,26.6,30.2,26.6,18.6,93,85,64,30.25,29.59,9,1,9,0.03
2013-2-9,32.7,26.6,18.8,26.6,15.1,3.7,94,65,32,30.27,29.68,14,1,14,0.20
2013-2-10,37.5,24.8,10.7,20.1,10.4,3.6,77,56,29,30.41,30.25,5,0,5,0.29
2013-2-11,40.1,33.6,26.7,39.3,31.0,19.8,97,90,74,30.25,29.59,4,0,4,0.26
2013-2-12,44.2,39.3,32.1,37.4,25.3,22.0,97,58,44,29.89,29.64,15,4,15,0.00
2013-2-13,44.1,34.3,23.5,30.6,23.3,19.4,92,66,42,29.88,29.61,6,0,6,0.01
2013-2-14,46.0,36.1,28.4,32.2,27.2,21.9,95,73,39,29.92,29.64,6,1,6,0.06
2013-2-15,55.1,40.9,30.0,32.5,27.3,23.3,85,61,35,29.93,29.83,20,2,20,0.01
2013-2-16,38.3,34.0,28.8,32.9,24.6,10.1,93,70,45,29.91,29.68,10,2,10,0.04
2013-2-17,31.0,25.2,16.4,10.8,2.5,-2.9,49,38,27,29.93,29.60,18,6,18,0.00
2013-2-18,36.2,25.0,15.4,12.0,3.5,-1.9,52,40,25,30.16,29.93,13,3,13,0.00
2013-2-19,43.5,33.8,22.4,39.7,25.0,10.3,96,72,45,30.11,29.60,16,1,16,0.34
2013-2-20,36.3,29.2,24.2,22.5,11.9,6.5,58,48,38,29.89,29.63,21,5,21,0.00
2013-2-21,34.0,26.7,22.7,12.7,10.3,8.2,62,50,39,30.22,29.89,16,4,16,0.00
2013-2-22,37.3,30.3,21.9,27.9,19.1,11.1,75,64,48,30.32,30.19,7,1,7,0.00
2013-2-23,39.8,35.8,32.4,38.5,33.9,26.1,95,93,74,30.20,29.75,6,0,6,0.10
2013-2-24,46.2,37.4,32.2,38.6,29.3,19.7,96,74,51,29.90,29.68,12,2,12,0.01
2013-2-25,43.2,36.7,28.8,26.8,24.4,19.9,78,61,47,30.16,29.90,7,1,7,0.00
2013-2-26,41.9,35.8,28.1,32.6,28.6,24.2,90,75,63,30.21,29.81,13,2,13,0.08
2013-2-27,44.6,41.2,35.2,43.5,38.4,32.6,96,90,74,29.85,29.43,14,3,14,0.56
2013-2-28,49.5,41.2,36.8,37.2,32.2,26.8,93,72,50,29.55,29.47,6,1,6,0.00
2013-3-1,43.1,37.9,32.4,29.0,26.8,23.3,82,65,51,29.71,29.53,12,2,12,0.00
2013-3-2,38.2,34.2,29.7,23.4,22.0,20.1,73,61,52,29.71,29.64,9,2,9,0.00
2013-3-3,39.5,31.2,27.0,20.1,16.4,13.3,67,54,40,29.70,29.60,12,3,12,0.00
2013-3-4,41.2,32.6,25.8,18.9,16.7,12.4,64,52,39,29.84,29.69,12,4,12,0.00
2013-3-5,49.4,38.4,29.8,25.2,21.9,18.3,65,52,36,29.94,29.83,12,2,12,0.00
2013-3-6,43.1,39.1,36.6,34.5,28.6,24.3,83,66,58,29.90,29.79,20,5,20,0.02
2013-3-7,39.1,35.5,32.2,33.2,28.2,23.9,94,76,59,30.01,29.86,15,4,15,0.10
2013-3-8,38.5,33.6,30.1,34.8,30.6,26.1,95,89,67,30.14,29.93,12,1,12,0.37
2013-3-9,56.2,41.2,30.3,26.3,21.8,12.0,72,50,19,30.25,30.11,10,2,10,0.10
2013-3-10,52.8,38.5,27.2,33.8,28.9,23.0,87,70,43,30.31,30.22,6,1,6,0.00
2013-3-11,54.1,44.8,37.8,46.4,39.3,32.8,95,82,57,30.25,30.01,6,1,6,0.00
2013-3-12,55.0,49.4,41.9,54.2,46.5,34.1,97,90,72,30.02,29.59,9,1,9,1.06
2013-3-13,50.2,41.9,35.8,34.3,27.6,16.9,77,59,29,29.82,29.71,18,2,18,0.00
2013-3-14,41.1,33.6,27.8,26.3,10.4,2.4,65,39,22,29.88,29.76,20,5,20,0.00
2013-3-15,44.9,36.5,27.8,28.4,17.6,6.9,60,46,34,29.89,29.63,23,5,23,0.00
2013-3-16,39.8,34.0,31.3,29.3,23.8,16.8,89,68,46,29.84,29.71,7,1,7,0.06
2013-3-17,37.2,31.6,26.6,28.9,16.5,10.4,88,55,35,30.23,29.84,10,1,10,0.02
2013-3-18,34.7,29.1,24.2,29.8,16.0,6.1,93,60,42,30.33,29.94,6,2,6,0.00
2013-3-19,44.6,36.2,31.6,35.7,31.6,24.6,95,84,61,29.94,29.62,12,2,12,0.75
2013-3-20,44.2,36.4,29.7,24.7,17.4,13.1,66,47,29,29.80,29.69,20,4,20,0.02
2013-3-21,39.9,33.4,29.3,26.4,14.9,6.6,82,48,29,29.76,29.55,9,2,9,0.00
2013-3-22,41.1,33.3,26.4,21.2,15.7,10.8,64,49,37,29.80,29.65,16,2,16,0.00
2013-3-23,45.1,38.0,31.9,21.3,17.6,14.7,58,44,31,29.86,29.75,18,4,18,0.00
2013-3-24,47.3,38.6,29.0,22.4,19.1,16.2,62,46,33,29.87,29.63,12,2,12,0.00
2013-3-25,41.2,38.3,36.8,34.0,26.6,21.3,87,63,48,29.63,29.40,10,2,10,0.03
2013-3-26,51.6,41.6,32.8,30.1,26.1,20.3,83,57,31,29.79,29.52,12,1,12,0.00
2013-3-27,52.2,41.5,31.3,34.9,24.2,16.9,83,52,27,29.91,29.79,13,2,13,0.01
2013-3-28,51.1,42.7,34.9,31.2,27.9,26.0,74,57,40,30.03,29.88,12,2,12,0.00
2013-3-29,54.5,44.8,35.5,28.2,26.2,21.2,70,49,29,30.06,29.98,12,2,12,0.00
2013-3-30,59.2,44.6,30.1,29.8,22.9,14.0,85,49,18,30.09,29.98,12,1,12,0.00
2013-3-31,55.6,42.7,30.3,43.0,32.1,24.1,94,68,34,30.05,29.61,12,1,12,0.14
2013-4-1,61.6,46.3,35.8,46.9,34.7,9.7,97,68,30,29.84,29.54,18,3,18,0.04
2013-4-2,44.2,36.4,29.0,15.2,10.8,5.7,55,35,23,30.01,29.84,21,4,21,0.00
2013-4-3,46.2,37.3,30.9,13.3,9.9,6.2,46,33,21,30.22,30.00,16,4,16,0.00
2013-4-4,55.1,41.6,29.1,28.5,17.1,12.1,56,38,23,30.30,30.00,13,3,13,0.00
2013-4-5,62.9,48.0,38.6,26.8,21.2,14.9,61,37,16,29.99,29.65,13,3,13,0.00
2013-4-6,55.1,42.7,32.9,27.5,13.9,4.2,59,34,13,30.23,29.93,13,2,13,0.00
2013-4-7,62.0,48.9,37.0,42.1,31.8,20.7,69,54,23,30.22,29.89,13,3,13,0.00
2013-4-8,77.6,58.8,43.8,44.5,40.0,32.8,88,55,21,30.00,29.89,10,1,10,0.00
2013-4-9,83.0,66.6,51.3,49.4,41.3,30.9,80,46,16,29.92,29.83,17,2,17,0.00
2013-4-10,76.0,62.6,53.1,55.9,48.6,39.8,95,63,42,29.91,29.74,13,1,13,0.51
2013-4-11,61.8,55.0,46.5,56.7,47.7,39.0,97,78,51,29.97,29.72,7,2,7,0.20
2013-4-12,46.5,42.4,39.8,40.5,37.8,34.3,94,84,65,29.97,29.65,12,3,12,0.34
2013-4-13,59.0,47.8,38.0,40.2,35.0,30.2,94,65,36,29.89,29.68,14,2,14,0.02
2013-4-14,57.5,50.8,45.5,35.0,29.1,23.3,63,44,27,30.15,29.89,14,2,14,0.00
2013-4-15,60.7,49.7,40.6,38.4,28.9,24.7,70,46,29,30.30,30.14,9,1,9,0.00
2013-4-16,65.5,56.8,47.0,53.2,46.6,38.3,77,69,59,30.29,30.03,7,1,7,0.00
2013-4-17,73.7,62.4,54.4,55.7,39.2,29.3,86,47,20,30.22,30.04,10,2,10,0.00
2013-4-18,59.2,52.5,45.5,52.1,42.3,31.8,94,70,37,30.27,30.03,12,1,12,0.04
2013-4-19,78.8,64.7,53.8,63.0,58.1,52.1,97,81,54,30.03,29.56,16,3,16,0.36
2013-4-20,60.2,52.0,43.3,56.3,32.7,20.5,95,53,25,30.24,29.61,17,4,17,0.17
2013-4-21,55.6,44.7,34.7,26.2,19.8,14.0,58,38,21,30.54,30.25,10,2,10,0.00
2013-4-22,54.7,45.7,35.5,34.8,29.9,20.6,82,55,27,30.59,30.42,9,2,9,0.00
2013-4-23,52.5,44.3,38.5,40.2,34.9,29.3,82,70,62,30.42,30.03,6,2,6,0.00
2013-4-24,74.0,54.6,36.8,51.1,43.2,34.1,92,68,38,30.04,29.73,12,2,12,0.00
2013-4-25,67.6,56.1,44.3,51.6,27.9,16.9,75,37,16,30.18,29.77,17,3,17,0.00
2013-4-26,67.6,54.8,40.3,34.1,28.3,17.8,76,40,16,30.34,30.18,15,1,15,0.00
2013-4-27,71.5,56.5,41.1,33.5,29.2,23.2,68,38,19,30.36,30.20,6,0,6,0.00
2013-4-28,72.1,56.6,41.3,40.3,34.1,29.0,84,46,25,30.24,30.12,16,1,16,0.00
2013-4-29,56.0,53.3,51.6,49.7,46.2,36.5,90,78,50,30.17,30.11,5,0,5,0.13
2013-4-30,69.3,57.4,47.3,48.6,37.3,22.4,91,54,20,30.26,30.14,12,1,12,0.00
2013-5-1,69.9,54.9,41.1,43.5,35.2,23.2,74,51,22,30.41,30.26,6,1,6,0.00
2013-5-2,76.7,59.1,43.2,44.3,40.0,33.3,90,56,23,30.40,30.25,6,0,6,0.00
2013-5-3,67.8,57.0,47.9,42.0,36.7,29.4,78,49,25,30.39,30.28,9,1,9,0.00
2013-5-4,72.0,55.3,44.2,43.3,40.8,36.2,90,62,29,30.31,30.15,5,1,5,0.00
2013-5-5,65.5,52.4,42.2,42.4,38.7,32.3,86,63,31,30.23,30.15,4,1,4,0.00
2013-5-6,70.9,55.7,42.2,52.9,46.0,39.0,91,72,46,30.20,30.08,5,0,5,0.00
2013-5-7,74.4,61.4,47.9,56.9,51.3,44.3,94,72,46,30.10,30.00,4,0,4,0.00
2013-5-8,64.0,60.2,54.1,61.3,57.1,51.3,96,89,75,30.03,29.90,4,0,4,0.93
2013-5-9,68.9,58.9,52.0,58.5,54.1,49.9,96,85,57,29.94,29.82,5,0,5,0.31
2013-5-10,80.5,65.0,51.0,58.9,53.8,49.6,96,71,36,29.94,29.83,10,0,10,0.00
2013-5-11,69.9,64.6,61.5,65.7,61.5,57.8,96,90,76,29.84,29.64,9,0,9,0.46
2013-5-12,69.1,60.0,49.5,60.2,39.2,22.5,95,51,22,29.86,29.60,18,3,18,0.00
2013-5-13,57.2,48.9,41.5,33.3,28.1,20.7,69,46,27,30.04,29.86,14,2,14,0.00
2013-5-14,63.2,49.9,38.5,36.3,27.7,17.4,80,48,19,30.06,29.94,12,1,12,0.00
2013-5-15,71.6,57.4,41.1,56.0,46.0,36.0,85,67,47,29.99,29.59,6,1,6,0.00
2013-5-16,83.0,68.6,55.1,55.6,50.9,37.9,88,58,28,29.77,29.64,12,1,12,0.00
2013-5-17,76.5,64.6,55.9,45.7,39.3,34.0,67,41,24,30.14,29.77,12,1,12,0.00
2013-5-18,65.2,57.3,50.1,53.9,48.9,44.9,84,74,50,30.24,30.14,2,0,2,0.01
2013-5-19,57.5,56.7,55.0,56.5,54.9,51.6,97,94,83,30.25,30.11,4,0,4,0.35
2013-5-20,81.6,67.0,57.0,67.0,61.0,56.2,97,83,54,30.11,29.89,7,1,7,0.00
2013-5-21,89.9,74.9,61.6,68.8,65.1,60.2,96,74,47,29.91,29.77,12,1,12,0.00
2013-5-22,83.8,71.8,60.7,69.7,65.0,57.4,91,80,61,29.87,29.76,5,0,5,0.00
2013-5-23,75.8,70.1,66.4,71.7,67.3,65.3,97,91,73,29.83,29.69,7,0,7,1.98
2013-5-24,66.6,53.9,44.8,65.7,51.5,39.1,98,92,75,29.89,29.62,13,2,13,0.76
2013-5-25,53.5,48.8,44.5,42.8,40.1,35.9,90,73,55,29.95,29.83,18,3,18,0.07
2013-5-26,68.3,55.7,46.1,39.9,35.4,29.9,71,49,27,30.13,29.89,17,3,17,0.00
2013-5-27,78.5,60.2,42.1,45.4,38.5,30.5,87,51,19,30.17,30.04,12,1,12,0.00
2013-5-28,64.5,56.5,49.8,56.1,51.0,42.8,96,83,59,30.15,30.05,4,0,4,0.44
2013-5-30,93.8,86.5,73.2,65.8,62.1,56.6,74,46,30,30.06,29.99,7,1,7,0.44
2013-5-31,73.2,71.5,69.6,64.6,64.0,63.6,82,77,73,30.04,30.03,0,0,0,0.00
2013-6-1,92.3,79.5,64.8,67.9,64.9,61.5,92,63,42,29.95,29.83,10,1,10,0.00
2013-6-2,88.2,78.6,71.5,69.8,66.7,63.3,92,68,47,29.84,29.70,12,2,12,0.02
2013-6-3,80.9,70.9,65.5,70.4,63.5,41.2,95,80,41,29.82,29.73,9,0,9,0.14
2013-6-4,78.1,65.4,55.0,44.0,41.8,36.6,63,44,24,30.05,29.82,10,1,10,0.00
2013-6-5,75.8,63.7,51.0,49.1,43.6,38.8,74,50,29,30.14,30.04,5,0,5,0.00
2013-6-6,69.6,61.5,53.5,59.6,53.6,44.8,93,77,43,30.08,29.94,6,0,6,0.17
2013-6-7,61.2,59.9,58.6,60.3,58.9,57.5,98,96,93,29.94,29.57,4,0,4,2.10
2013-6-8,76.7,66.3,55.7,62.1,59.3,55.1,98,80,57,30.00,29.54,13,1,13,0.07
2013-6-9,82.4,70.1,58.3,61.5,57.6,52.9,94,68,38,30.11,30.00,7,1,7,0.00
2013-6-10,68.8,64.5,61.6,65.5,61.1,57.9,97,89,81,30.10,29.76,5,0,5,0.63
2013-6-11,80.3,69.6,62.3,68.0,62.6,56.4,98,80,55,29.76,29.56,15,2,15,0.13
2013-6-12,77.4,69.3,61.8,57.7,53.1,49.8,81,58,39,29.79,29.65,13,2,13,0.00
2013-6-13,62.0,59.9,55.1,60.3,57.6,53.1,95,92,81,29.79,29.41,10,0,10,0.80
2013-6-14,75.6,60.1,52.2,62.3,53.7,47.7,95,81,48,29.83,29.49,6,1,6,0.44
2013-6-15,82.2,68.9,56.6,57.0,52.8,45.2,92,61,29,29.95,29.82,9,1,9,0.00
2013-6-16,81.6,69.0,56.0,63.5,57.3,52.0,91,69,42,29.93,29.70,15,2,15,0.00
2013-6-17,85.9,74.6,63.7,65.5,62.5,59.1,94,69,42,29.85,29.77,10,1,10,0.00
2013-6-18,82.4,68.5,60.5,66.0,61.6,58.6,96,80,47,29.84,29.74,6,0,6,0.74
2013-6-19,74.4,62.9,56.6,59.1,53.0,45.5,95,73,38,30.09,29.83,5,1,5,0.00
2013-6-20,82.4,68.3,54.2,57.3,53.8,47.6,92,64,33,30.19,30.09,6,1,6,0.00
2013-6-21,84.0,72.1,58.7,58.9,55.0,52.6,84,57,37,30.23,30.15,10,1,10,0.00
2013-6-22,84.9,72.5,59.5,63.4,58.0,52.8,84,62,44,30.19,30.05,7,1,7,0.00
2013-6-23,90.1,77.0,65.0,68.7,64.7,59.3,89,68,44,30.12,29.98,12,1,12,0.00
2013-6-24,94.0,80.5,72.1,70.4,67.1,61.0,92,66,36,30.00,29.86,12,1,12,0.00
2013-6-25,92.5,79.2,68.3,70.8,66.3,63.6,90,67,40,29.93,29.73,15,2,15,0.00
2013-6-26,85.5,77.7,72.1,69.2,66.4,63.9,88,69,55,29.78,29.72,6,1,6,0.01
2013-6-27,85.9,76.7,69.6,71.1,67.7,65.7,95,75,54,29.76,29.46,6,0,6,0.55
2013-6-28,87.4,77.1,71.5,70.8,67.7,63.5,94,75,46,29.49,29.40,7,1,7,0.07
2013-6-29,87.4,76.6,68.6,66.3,64.1,59.8,90,67,40,29.64,29.42,9,1,9,0.00
2013-6-30,84.3,75.2,66.9,73.1,68.9,64.5,93,81,63,29.84,29.64,5,0,5,0.01
2013-7-1,75.4,73.8,70.8,74.2,71.4,68.7,96,92,87,29.98,29.83,9,0,9,1.15
2013-7-2,80.7,76.2,72.8,76.7,71.6,68.5,95,86,74,30.11,29.97,7,0,7,0.12
2013-7-3,83.8,76.7,71.5,75.0,70.9,68.3,91,83,69,30.18,30.10,5,0,5,0.08
2013-7-4,90.1,80.8,73.7,73.6,71.5,69.1,95,75,52,30.18,30.08,12,1,12,0.00
2013-7-5,92.9,82.2,72.8,72.5,69.9,66.9,92,68,45,30.15,30.02,9,1,9,0.00
2013-7-6,93.2,83.3,74.6,72.7,70.7,68.3,89,68,46,30.07,29.96,7,1,7,0.00
2013-7-7,94.0,83.1,72.5,73.1,71.4,68.5,92,70,45,30.00,29.86,18,1,18,0.01
2013-7-8,91.2,78.7,69.3,70.0,67.3,64.5,93,71,42,29.98,29.90,7,1,7,0.00
2013-7-9,89.7,78.7,69.8,70.5,67.7,65.7,89,70,48,30.01,29.92,10,1,10,0.00
2013-7-10,87.6,79.6,73.3,74.3,70.2,68.2,87,74,55,29.95,29.74,13,1,13,0.01
2013-7-11,85.9,78.4,72.1,73.4,67.9,62.9,88,71,49,29.87,29.74,7,0,7,0.00
2013-7-12,76.8,72.5,66.9,68.7,64.6,60.3,94,77,65,30.04,29.86,4,0,4,0.23
2013-7-13,78.3,71.6,65.8,74.1,69.3,64.2,96,93,84,30.22,30.04,4,0,4,0.11
2013-7-14,92.9,81.4,73.0,74.6,71.2,67.5,96,74,45,30.28,30.17,7,1,7,0.11
2013-7-15,94.9,83.5,73.9,72.8,70.5,66.0,89,67,41,30.19,30.07,9,0,9,0.00
2013-7-16,94.3,82.9,72.7,71.9,67.4,61.5,87,63,36,30.15,30.07,4,0,4,0.00
2013-7-17,97.5,84.4,72.8,72.9,68.9,60.7,88,63,30,30.14,30.00,6,0,6,0.00
2013-7-18,98.7,86.5,75.6,74.6,70.6,64.9,84,62,36,30.01,29.89,7,1,7,0.00
2013-7-19,97.1,87.0,77.2,75.0,72.7,69.7,87,64,42,29.91,29.73,13,2,13,0.00
2013-7-20,94.0,83.8,76.8,73.2,69.1,63.3,78,62,43,29.78,29.67,14,2,14,0.00
2013-7-21,88.8,80.2,74.2,70.4,64.2,58.8,85,60,37,29.90,29.78,4,0,4,0.00
2013-7-22,85.1,75.5,70.9,75.0,69.5,63.9,96,83,59,29.90,29.74,4,0,4,0.52
2013-7-23,88.0,77.5,71.3,74.1,71.4,67.1,97,83,54,29.74,29.50,10,1,10,0.89
2013-7-24,81.6,73.8,65.6,70.0,62.7,52.3,94,70,46,29.89,29.56,8,1,8,0.00
2013-7-25,67.6,64.8,62.0,58.6,53.1,47.1,77,66,59,30.00,29.89,5,0,5,0.00
2013-7-26,84.7,72.7,65.3,61.7,58.7,56.7,81,63,41,29.99,29.93,6,1,6,0.00
2013-7-27,86.5,72.8,61.6,64.1,60.6,54.9,93,68,35,30.00,29.89,10,1,10,0.00
2013-7-28,78.5,70.9,65.8,68.7,65.6,62.8,96,84,65,29.93,29.85,4,0,4,0.53
2013-7-29,84.5,73.3,65.6,68.2,61.9,50.1,97,72,31,30.05,29.90,10,1,10,0.01
2013-7-30,80.7,69.6,58.9,60.0,56.7,53.8,90,66,42,30.11,30.04,7,1,7,0.00
2013-7-31,82.4,70.7,59.0,61.5,59.1,56.6,93,69,43,30.11,29.97,5,0,5,0.00
2013-8-1,71.3,67.3,65.5,67.5,64.5,61.1,97,91,77,29.98,29.77,5,0,5,0.69
2013-8-2,84.9,72.5,62.6,67.4,62.5,55.9,97,74,38,29.85,29.74,10,1,10,0.00
2013-8-3,79.8,69.8,65.3,67.1,62.8,58.0,93,79,59,29.86,29.78,10,1,10,0.08
2013-8-4,80.1,70.1,61.0,62.4,55.7,49.5,90,63,40,29.93,29.81,12,1,12,0.00
2013-8-5,79.9,66.9,55.7,57.7,50.3,42.2,87,59,31,30.01,29.92,5,1,10,0.00
2013-8-6,82.8,68.8,56.5,60.3,55.1,50.3,91,65,33,30.06,29.98,7,0,7,0.00
2013-8-7,76.0,70.1,65.2,68.0,63.6,59.9,93,80,65,30.08,30.00,5,0,5,0.05
2013-8-8,83.4,72.3,69.1,75.3,69.3,67.5,96,91,65,30.00,29.93,7,0,7,1.86
2013-8-9,86.1,75.3,70.8,75.5,72.3,69.7,97,91,63,29.95,29.73,10,1,10,0.33
2013-8-10,84.9,73.5,65.5,71.3,63.0,55.3,96,73,39,30.00,29.81,10,1,10,0.00
2013-8-11,81.6,70.2,59.0,64.4,57.0,50.6,87,65,39,30.07,29.96,6,0,6,0.00
2013-8-12,85.3,72.4,66.4,67.9,63.7,55.0,96,77,38,29.98,29.86,4,0,4,0.46
2013-8-13,79.8,70.5,66.4,69.1,66.2,63.9,96,87,63,29.87,29.63,5,0,5,0.80
2013-8-14,73.5,65.0,56.7,64.5,51.5,46.1,94,63,46,29.99,29.70,14,2,14,0.00
2013-8-15,78.6,64.7,52.3,56.3,51.1,44.4,93,66,34,30.09,29.99,7,0,7,0.00
2013-8-16,82.2,67.2,54.7,58.7,53.6,46.9,94,66,31,30.15,30.07,5,0,5,0.00
2013-8-17,83.2,68.8,56.5,60.2,56.3,51.7,94,68,34,30.22,30.15,4,0,4,0.00
2013-8-18,74.4,68.3,62.9,63.6,60.2,57.9,89,76,58,30.20,30.07,1,0,1,0.00
2013-8-19,78.5,69.2,61.2,64.4,61.3,58.7,94,77,53,30.08,29.98,5,0,5,0.00
2013-8-20,88.4,74.4,62.3,68.3,63.3,58.9,95,72,39,30.07,29.99,7,0,7,0.00
2013-8-21,89.5,75.4,63.7,67.5,62.8,57.3,92,68,35,30.12,29.99,6,0,6,0.00
2013-8-22,76.8,70.8,67.9,71.8,68.2,64.7,96,91,82,30.01,29.81,5,0,5,0.55
2013-8-23,80.3,71.9,64.8,67.3,60.3,51.2,93,69,42,30.05,29.82,6,0,6,0.00
2013-8-24,80.5,68.2,58.4,58.5,52.0,45.0,87,59,29,30.30,30.05,4,0,4,0.00
2013-8-25,84.0,68.4,55.1,60.2,54.4,47.5,94,66,30,30.34,30.17,7,1,7,0.00
2013-8-26,78.3,71.2,64.8,69.5,61.3,55.3,93,71,61,30.18,29.84,8,1,8,0.07
2013-8-27,88.4,76.0,68.9,69.0,67.1,64.8,94,76,47,29.84,29.76,6,0,6,0.01
2013-8-28,83.2,72.0,67.3,72.0,68.8,65.2,96,90,60,29.84,29.78,5,0,5,0.67
2013-8-29,81.4,71.9,67.8,70.1,67.1,64.3,97,86,61,29.97,29.83,4,0,4,0.02
2013-8-30,85.7,74.8,68.4,69.4,66.5,64.5,89,77,51,29.97,29.80,7,1,7,0.00
2013-8-31,85.1,76.6,71.1,72.4,70.0,68.0,91,80,63,29.81,29.72,9,1,9,0.00
2013-9-1,84.0,76.4,72.3,74.1,71.0,68.2,93,84,66,29.80,29.72,4,0,4,0.01
2013-9-2,79.2,74.0,70.8,74.3,71.3,69.0,96,91,73,29.75,29.65,5,0,5,0.12
2013-9-3,82.4,71.6,64.2,70.0,61.9,53.8,97,74,43,29.83,29.66,6,1,6,0.12
2013-9-4,83.4,69.5,59.0,59.7,56.6,50.8,91,67,37,29.94,29.83,10,1,10,0.00
2013-9-5,76.7,66.8,56.5,59.8,52.3,38.0,89,64,27,30.10,29.86,12,1,12,0.00
2013-9-6,73.3,60.0,50.7,50.1,44.3,38.8,85,59,32,30.20,30.08,6,0,6,0.00
2013-9-7,81.1,63.4,47.6,55.9,49.0,41.7,93,64,29,30.08,29.84,7,0,7,0.00
2013-9-8,80.3,69.2,60.2,62.4,53.5,41.3,83,60,30,30.03,29.76,12,1,12,0.00
2013-9-9,73.0,61.9,49.5,57.0,49.1,43.5,85,65,41,30.18,30.03,5,0,5,0.00
2013-9-10,87.2,74.1,64.7,71.6,66.3,57.0,90,77,58,30.09,29.98,9,1,9,0.00
2013-9-11,94.3,81.6,71.8,75.1,71.8,68.2,93,74,51,30.06,29.91,10,1,10,0.00
2013-9-12,84.7,74.4,67.6,75.0,69.7,65.7,96,86,65,29.92,29.61,15,0,15,1.00
2013-9-13,76.1,66.5,57.0,66.4,58.1,46.9,97,77,48,29.81,29.57,13,1,13,0.04
2013-9-14,65.5,57.0,50.1,48.2,45.8,42.8,84,67,51,30.07,29.80,9,1,9,0.00
2013-9-15,72.8,57.4,44.2,53.3,46.0,40.3,94,70,34,30.15,30.02,6,0,6,0.00
2013-9-16,71.8,61.3,55.6,56.7,52.2,45.7,93,74,47,30.19,29.97,7,0,7,0.01
2013-9-17,66.4,54.7,45.2,45.8,39.8,33.6,87,59,34,30.37,30.19,5,0,5,0.00
2013-9-18,73.2,56.1,41.8,48.7,44.2,39.6,95,69,33,30.29,30.12,7,0,7,0.00
2013-9-19,78.5,59.4,43.8,53.1,47.9,41.6,94,70,32,30.13,30.00,9,0,9,0.00
2013-9-20,81.8,62.8,48.6,58.1,53.1,46.6,95,74,39,30.03,29.92,6,0,6,0.00
2013-9-21,78.3,64.1,50.8,65.9,58.2,48.8,95,82,47,29.96,29.60,5,0,5,0.65
2013-9-22,67.0,60.3,53.1,63.9,50.0,38.7,96,71,45,29.86,29.60,13,1,13,0.30
2013-9-23,66.0,55.2,45.8,44.8,41.1,37.8,81,60,40,29.99,29.86,10,1,10,0.00
2013-9-24,75.3,56.4,41.9,48.0,42.1,38.3,90,63,29,29.99,29.81,12,1,12,0.00
2013-9-25,73.7,58.6,45.7,52.4,46.3,42.3,90,67,36,29.90,29.81,5,0,5,0.00
2013-9-26,72.0,60.2,50.7,56.0,52.3,48.2,92,76,52,30.04,29.88,4,0,4,0.00
2013-9-27,66.9,59.0,50.7,53.0,50.1,47.1,89,73,55,30.20,30.04,4,0,4,0.00
2013-9-28,74.4,61.6,52.6,53.4,50.7,47.6,90,70,41,30.27,30.18,4,0,4,0.00
2013-9-29,73.3,59.8,50.7,55.5,51.6,48.7,94,77,45,30.18,30.01,4,0,4,0.00
2013-9-30,75.8,59.8,48.3,54.6,50.5,46.6,95,75,39,30.03,29.91,4,0,4,0.00
2013-10-1,81.8,63.3,48.0,60.0,53.8,46.1,95,75,37,29.95,29.83,7,0,7,0.00
2013-10-2,84.7,67.4,52.9,63.0,57.5,50.9,94,74,41,29.96,29.85,9,1,9,0.00
2013-10-3,77.9,65.1,53.6,59.6,56.3,51.6,95,76,45,30.06,29.96,4,0,4,0.00
2013-10-4,87.4,69.7,58.4,69.3,62.1,56.6,94,79,42,30.00,29.90,9,0,9,0.00
2013-10-5,79.2,69.4,64.7,64.9,63.0,61.9,92,81,59,30.04,29.96,4,0,4,0.00
2013-10-6,66.9,65.6,64.8,65.2,63.7,62.2,96,94,89,30.04,29.96,4,0,4,0.01
2013-10-7,76.7,65.9,56.5,69.6,63.1,46.8,96,91,69,29.97,29.67,16,1,16,0.35
2013-10-8,66.4,55.8,47.0,48.2,45.4,40.8,94,71,40,30.26,29.92,5,0,5,0.00
2013-10-9,61.6,54.0,45.7,47.1,43.5,39.5,86,69,50,30.34,30.23,6,0,6,0.00
2013-10-10,61.2,56.1,51.6,52.1,48.1,43.6,83,75,71,30.23,30.01,5,1,5,0.00
2013-10-11,66.3,62.6,58.7,58.1,54.4,50.1,79,75,71,30.03,29.95,6,1,6,0.00
2013-10-12,75.3,64.2,57.8,55.8,46.3,28.0,77,55,19,30.23,30.01,5,1,5,0.00
2013-10-13,65.3,57.6,50.4,51.5,48.3,46.6,89,72,55,30.34,30.22,7,0,7,0.00
2013-10-14,69.4,56.0,48.0,49.4,47.2,43.2,94,75,42,30.30,30.17,4,0,4,0.00
2013-10-15,73.7,58.0,46.7,53.3,49.1,44.8,95,75,45,30.20,30.05,4,0,4,0.00
2013-10-16,67.1,58.3,49.9,57.4,52.9,47.3,93,83,65,30.06,29.84,2,0,2,0.00
2013-10-17,75.4,65.2,59.9,61.7,59.0,56.3,96,82,54,29.84,29.61,10,1,10,0.01
2013-10-18,69.3,60.3,48.8,61.4,45.5,39.7,89,60,36,29.92,29.60,14,2,14,0.00
2013-10-19,62.9,52.6,40.8,51.5,43.5,38.2,93,73,42,29.92,29.68,5,0,5,0.06
2013-10-20,64.7,53.0,43.3,51.3,39.1,30.3,93,63,29,30.00,29.69,12,1,12,0.00
2013-10-21,67.8,49.3,36.6,41.3,36.2,31.5,91,66,27,30.08,29.91,10,1,10,0.00
2013-10-22,63.9,51.3,41.3,48.8,43.0,36.5,93,74,54,29.91,29.68,7,1,7,0.00
2013-10-23,55.3,45.0,36.8,38.8,35.5,32.1,92,71,42,29.75,29.55,4,0,4,0.00
2013-10-24,55.0,43.8,35.5,34.5,29.3,22.3,85,59,32,29.93,29.68,17,2,17,0.00
2013-10-25,52.9,42.2,32.2,32.0,28.8,24.7,84,61,34,30.15,29.93,12,1,12,0.00
2013-10-26,54.8,43.3,31.6,32.3,29.2,24.9,89,61,32,30.15,29.82,14,2,14,0.00
2013-10-27,58.4,48.5,39.1,32.1,30.2,27.4,75,51,31,30.05,29.77,13,1,13,0.00
2013-10-28,62.6,45.7,31.5,35.2,31.5,27.9,89,62,30,30.25,30.05,14,1,14,0.00
2013-10-29,55.7,45.5,37.0,34.6,30.7,27.1,80,58,37,30.35,30.25,4,0,4,0.00
2013-10-30,56.5,45.7,36.5,46.2,38.9,31.3,91,78,63,30.28,30.10,4,0,4,0.00
2013-10-31,63.2,52.2,40.9,58.3,49.1,38.8,96,89,74,30.16,29.72,7,0,7,0.00
2013-11-1,69.8,63.3,51.6,62.1,55.0,48.1,91,76,47,29.72,29.47,17,4,17,0.25
2013-11-2,67.4,53.9,45.4,49.6,43.6,36.7,95,71,39,29.72,29.55,12,1,12,0.00
2013-11-3,50.7,42.9,32.8,42.5,30.7,19.1,87,63,40,30.39,29.72,12,2,12,0.01
2013-11-4,46.2,36.6,30.7,24.9,17.6,12.3,74,48,27,30.57,30.39,10,1,10,0.00
2013-11-5,53.5,43.0,31.8,39.4,33.0,23.8,84,68,55,30.58,30.41,4,0,4,0.00
2013-11-6,60.1,49.6,38.6,48.7,42.3,36.4,94,77,54,30.42,30.00,6,0,6,0.00
2013-11-7,60.2,56.1,52.2,55.8,52.8,48.7,93,89,79,30.00,29.68,12,2,12,0.00
2013-11-17,58.9,58.7,58.6,56.9,56.7,56.6,94,93,92,29.77,29.74,5,1,5,0.00
2013-11-18,64.0,57.9,48.5,60.4,36.2,23.1,95,49,27,29.72,29.52,22,5,22,0.00
2013-11-19,48.3,41.4,33.8,26.8,22.5,19.3,57,47,39,30.27,29.71,16,5,16,0.00
2013-11-20,44.9,34.9,27.6,19.7,14.0,5.9,62,44,21,30.53,30.27,12,2,12,0.00
2013-11-21,50.4,39.0,25.7,38.6,27.6,16.3,76,64,47,30.54,30.31,4,1,4,0.00
2013-11-22,56.9,49.2,45.1,48.4,43.2,38.4,93,80,67,30.31,29.84,12,2,12,0.01
2013-11-23,52.9,38.7,29.5,46.7,22.1,7.5,84,52,33,29.98,29.84,14,5,14,0.01
2013-11-24,29.4,24.3,21.1,7.5,2.1,-3.4,48,38,26,30.28,29.94,20,6,20,0.01
2013-11-25,35.5,27.9,18.0,11.9,9.1,3.8,61,45,35,30.39,30.24,9,3,9,0.01
2013-11-26,38.5,34.3,30.9,37.2,23.3,12.0,95,66,42,30.25,29.71,5,0,5,0.02
2013-11-27,57.8,43.7,32.4,57.2,39.5,16.3,98,85,51,29.71,29.27,12,3,12,0.02
2013-11-28,33.8,30.2,27.2,17.3,11.5,4.8,59,46,30,30.38,29.67,18,4,18,0.00
2013-11-29,38.5,30.6,26.3,19.2,16.3,11.9,73,55,42,30.65,30.38,7,1,7,0.00
2013-11-30,34.7,29.0,20.0,22.4,15.0,9.1,67,56,45,30.68,30.30,5,1,5,0.00
2013-12-1,48.2,38.1,29.1,31.6,27.7,22.4,84,67,48,30.30,29.94,4,0,4,0.01
2013-12-2,45.8,37.7,32.5,33.8,30.5,27.6,85,76,53,29.94,29.81,4,0,4,0.00
2013-12-3,54.1,39.2,29.8,35.9,31.4,27.5,93,75,45,29.94,29.80,6,0,6,0.00
2013-12-4,50.4,41.8,31.3,39.6,34.3,28.5,92,76,58,30.06,29.94,4,0,4,0.00
2013-12-5,53.1,48.7,44.2,52.6,47.2,39.6,98,95,77,30.05,29.86,2,0,2,0.05
2013-12-6,53.9,45.0,36.6,53.3,42.9,35.0,98,92,82,30.08,29.80,10,1,10,0.74
2013-12-7,38.9,34.5,29.0,35.0,25.1,14.1,95,70,47,30.44,30.02,13,2,13,0.04
2013-12-8,31.2,27.8,25.7,26.1,17.6,13.2,90,66,53,30.52,30.31,7,1,7,0.00
2013-12-9,35.9,32.5,28.5,34.6,30.7,25.9,95,93,90,30.31,29.89,6,1,6,0.15
2013-12-10,32.7,30.0,23.0,31.4,27.5,16.8,95,90,73,30.04,29.80,6,1,6,0.00
2013-12-11,32.5,26.6,20.6,17.1,15.5,13.4,81,63,46,30.24,30.04,12,3,12,0.05
2013-12-12,26.1,22.8,19.4,14.7,6.4,3.0,66,50,38,30.27,30.08,12,4,12,0.00
2013-12-13,34.4,27.6,16.4,17.6,11.2,4.0,69,50,41,30.23,30.03,20,4,20,0.01
2013-12-14,26.9,22.9,18.0,23.5,16.8,14.0,90,77,65,30.42,29.73,7,2,7,0.01
2013-12-15,36.0,31.1,25.6,30.6,25.5,18.6,93,81,60,29.75,29.46,15,3,15,0.06
2013-12-16,30.0,25.3,15.6,20.7,9.8,4.3,76,53,37,30.15,29.75,12,3,12,0.01
2013-12-17,25.6,20.1,14.1,22.8,15.1,8.7,89,81,70,30.15,29.86,7,2,7,0.00
2013-12-18,36.6,28.3,16.2,21.2,17.4,12.7,86,65,48,30.08,29.85,16,3,16,0.01
2013-12-19,44.3,34.1,20.3,26.3,22.4,15.0,82,63,44,30.09,29.94,7,1,7,0.05
2013-12-20,48.5,38.8,29.3,32.1,28.5,25.5,87,68,48,30.03,29.89,7,1,7,0.10
2013-12-21,57.6,47.9,36.9,49.8,41.1,32.1,92,78,63,29.92,29.83,12,1,12,0.00
2013-12-22,67.3,61.3,50.7,60.8,55.4,48.6,97,82,69,29.89,29.72,13,4,13,0.02
2013-12-23,57.8,51.5,38.6,56.7,48.6,27.1,97,90,62,30.09,29.84,12,2,12,0.57
2013-12-24,39.6,33.0,23.2,27.5,19.3,6.9,87,57,43,30.27,30.03,13,4,13,0.00
2013-12-25,28.5,22.7,16.5,12.5,6.4,3.5,59,49,40,30.45,30.27,9,2,9,0.00
2013-12-26,34.7,28.5,22.9,24.9,19.8,12.1,80,70,58,30.34,30.08,10,2,10,0.01
2013-12-27,38.9,31.9,25.7,22.2,19.5,16.4,78,61,43,30.28,30.17,7,2,7,0.00
2013-12-28,52.6,38.0,24.7,26.0,22.6,19.1,81,56,32,30.20,29.99,14,2,14,0.00
2013-12-29,41.2,37.2,32.1,39.7,32.4,25.1,96,83,58,29.99,29.37,12,2,12,0.71
2013-12-30,40.2,32.5,20.5,36.1,22.8,6.9,93,69,48,30.14,29.63,14,3,14,0.01
2013-12-31,30.6,24.1,18.6,21.2,9.9,4.6,72,55,42,30.20,29.98,16,3,16,0.00
2014-1-1,31.3,25.8,18.1,17.7,12.4,5.0,71,57,46,30.33,30.17,9,1,9,0.00
2014-1-2,29.0,22.1,11.1,19.5,15.2,6.7,84,75,60,30.17,29.63,12,4,12,0.00